Regional Weather Roundup
Issued by NWS

Home | Current Version | Previous Version | Text Only | Print | Product List | Glossary Off
Versions: 1 2 3 4 5 6 7 8 9 10 11 12 13 14 15 16 17 18 19 20 21 22 23 24 25 26 27 28 29 30 31 32 33 34 35 36 37 38 39 40 41 42 43 44 45 46 47 48 49 50

000
ASUS45 KBOI 282210
RWRID
WEATHER ROUNDUP FOR IDAHO
NATIONAL WEATHER SERVICE BOISE ID
400 PM MDT MON JUL 28 2014

NOTE: "FAIR" INDICATES FEW OR NO CLOUDS BELOW 12000 FEET
WITH NO SIGNIFICANT WEATHER AND/OR OBSTRUCTIONS TO VISIBILITY

IDZ012-014-282300-
SOUTHWEST IDAHO


CITY           SKY/WX    TMP DP  RH WIND       PRES   REMARKS
BOISE          MOSUNNY   99  41  13 S12       30.04F HX  94
CALDWELL       MOSUNNY   97  46  17 S8        30.04F HX  93
MOUNTAIN HOME  MOSUNNY   96  43  16 E12       30.07F HX  91
$$

IDZ016-017-282300-
SOUTHCENTRAL IDAHO


CITY           SKY/WX    TMP DP  RH WIND       PRES   REMARKS
BURLEY         PTSUNNY   86  51  29 SE5       30.15F
JEROME         CLOUDY    84  55  36 NW14      30.17S
TWIN FALLS     CLOUDY    88  49  25 W10       30.17F
$$

IDZ019>023-282300-
SOUTHEAST IDAHO


CITY           SKY/WX    TMP DP  RH WIND       PRES   REMARKS
IDAHO FALLS    CLOUDY    89  42  19 W3        30.19F
POCATELLO      SUNNY     89  45  21 W10       30.17
REXBURG        CLOUDY    87  38  17 SW8       30.20F
$$

IDZ006-010-011-018-031-032-282300-
CENTRAL IDAHO MOUNTAINS


CITY           SKY/WX    TMP DP  RH WIND       PRES   REMARKS
MCCALL         MOSUNNY   85  39  19 CALM      30.21S
HAILEY         PTSUNNY   81  43  26 N5        30.30F
STANLEY          N/A     79  41  25 S10       30.36F
SALMON         CLOUDY    84  41  21 NW7       30.14F
CHALLIS        CLOUDY    84  38  19 S8        30.26F
$$

IDZ002-004-006-007-026-282300-
NORTHERN IDAHO


CITY           SKY/WX    TMP DP  RH WIND       PRES   REMARKS
LEWISTON       SUNNY    102  42  13 VRB7      29.98F HX  97
LOWELL           N/A     99  58  25 CALM      29.96F HX  98
COEUR D`ALENE  SUNNY     95  46  18 NE9       30.06F HX  91
MULLAN PASS    MOSUNNY   81  44  27 VRB3      30.34F
$$



USA.gov is the U.S. government's official web portal to all federal, state and local government web resources and services.